User: anonymous   Login
Location: Waning Moon II Observatory
(30.3730°N, 89.7620°W)
Time: 23:57:47
(UTC-06:00)
Language:

Cosmos 1825 Rocket - Orbit

View from above orbital plane
View from above orbital plane
View from above satellite
View from above satellite

Ground track
Ground track

The orbit data is extracted from the following two-line orbital elements,

1 17567U 87024B   14351.08082241  .00000846  00000-0  10020-3 0  5390
2 17567 082.5291 333.4484 0021005 116.7936 287.2888 14.83258569501094
Epoch (UTC): 17 December 2014 01:56:23
Eccentricity: 0.0021005
inclination: 82.5291°
perigee height: 604 km
apogee height: 634 km
right ascension of ascending node: 333.4484°
argument of perigee: 116.7936°
revolutions per day: 14.83258569
mean anomaly at epoch: 287.2888°
orbit number at epoch: 50109

The dashed part of the orbit path shows where the satellite is in the earth's shadow,  

DLR